CW6344 Weather Reports


Display with metric or nautical units.
time (UTC)temp
F
wind
direction
speed
MPH
gust
MPH
rain 1hr
in
rain 24hr
in
rain mn
in
humidity
%
barometer
mb
20200328121808 53 80 2.0 2.0 0.04 0.12 0.12 97 1016.4
20200328114809 53 69 1.0 1.0 0.04 0.12 0.12 96 1016.6
20200328113807 53 329 0.0 0.0 0.03 0.11 0.11 96 1016.9
20200328110807 52 74 0.0 0.0 0.00 0.08 0.08 96 1016.5
20200328101806 53 133 0.0 0.0 0.00 0.08 0.08 96 1015.3
20200328100806 53 133 0.0 0.0 0.00 0.08 0.08 96 1015.0
20200328095806 53 133 0.0 0.0 0.00 0.08 0.08 96 1015.2
20200328093806 53 191 0.0 1.0 0.00 0.08 0.08 96 1015.5
20200328092806 53 17 0.0 0.0 0.00 0.08 0.08 96 1015.4
20200328085806 53 17 0.0 0.0 0.01 0.08 0.08 96 1015.2
20200328084805 53 17 0.0 0.0 0.01 0.08 0.08 96 1014.9
20200328083805 53 360 0.0 0.0 0.01 0.08 0.08 96 1015.0
20200328082805 53 18 0.0 0.0 0.01 0.08 0.08 96 1015.4
20200328081805 53 15 1.0 1.0 0.00 0.07 0.07 95 1015.5
20200328080805 53 5 0.0 0.0 0.00 0.07 0.07 95 1016.5
20200328075805 53 142 0.0 0.0 0.00 0.07 0.07 95 1016.2
20200328074805 53 142 0.0 0.0 0.00 0.07 0.07 95 1016.2
20200328073804 53 166 0.0 0.0 0.00 0.07 0.07 95 1016.0
20200328072804 53 55 0.0 0.0 0.00 0.07 0.07 95 1016.1
20200328071804 53 282 0.0 0.0 0.00 0.07 0.07 95 1016.6
20200328070804 53 282 0.0 0.0 0.00 0.07 0.07 95 1016.8
20200328065804 54 173 0.0 0.0 0.00 0.07 0.07 95 1016.5
20200328064804 54 184 0.0 0.0 0.00 0.07 0.07 95 1016.4
20200328063804 54 57 1.0 1.0 0.02 0.07 0.07 95 1016.5
20200328062804 54 57 0.0 0.0 0.05 0.07 0.07 95 1016.7
20200328053803 55 188 0.0 0.0 0.06 0.05 0.06 93 1016.3
20200328052803 55 188 0.0 0.0 0.02 0.02 0.02 92 1016.4
20200328051803 55 188 0.0 0.0 0.01 0.01 0.01 91 1016.8
20200328043802 55 188 0.0 1.0 0.00 0.00 0.00 89 1016.6
20200328042802 56 188 0.0 0.0 0.00 0.00 0.00 89 1016.7
20200328035802 56 188 0.0 0.0 0.00 0.00 0.00 88 1016.8
20200328034802 56 188 0.0 0.0 0.00 0.00 0.00 88 1017.1
20200328032801 56 188 0.0 0.0 0.00 0.00 0.00 87 1017.1
20200328031801 56 188 0.0 0.0 0.00 0.00 0.00 86 1016.5
20200328030801 56 188 0.0 0.0 0.00 0.00 0.00 86 1016.5
20200328025801 56 71 0.0 0.0 0.00 0.00 0.00 87 1016.6
20200328024801 56 71 0.0 0.0 0.00 0.00 0.00 87 1016.5
20200328023801 56 71 0.0 0.0 0.00 0.00 0.00 86 1016.3
20200328021801 57 71 0.0 0.0 0.00 0.00 0.00 85 1015.9
20200328020801 57 71 0.0 0.0 0.00 0.00 0.00 84 1016.1
20200328014800 58 71 0.0 0.0 0.00 0.00 0.00 83 1016.4
20200328011802 58 71 0.0 0.0 0.00 0.00 0.00 79 1016.1
20200328010800 58 71 0.0 0.0 0.00 0.00 0.00 78 1016.3
20200328004800 58 71 0.0 0.0 0.00 0.00 0.00 78 1016.2
20200328002759 59 71 0.0 0.0 0.00 0.00 0.00 77 1015.8
20200328001759 59 71 0.0 0.0 0.00 0.00 0.00 77 1015.9
20200328000802 59 71 0.0 1.0 0.00 0.00 0.00 76 1015.5
20200327233759 60 71 0.0 0.0 0.00 0.00 0.00 74 1015.1
20200327231758 60 76 1.0 1.0 0.00 0.00 0.00 72 1014.5
20200327224758 61 69 1.0 1.0 0.00 0.00 0.00 71 1014.5
20200327223758 61 69 1.0 1.0 0.00 0.00 0.00 71 1014.1
20200327221758 61 66 0.0 0.0 0.00 0.00 0.00 71 1014.3
20200327220758 61 66 0.0 0.0 0.00 0.00 0.00 73 1014.0
20200327213757 62 66 0.0 0.0 0.00 0.00 0.00 69 1013.2
20200327212757 62 66 0.0 0.0 0.00 0.00 0.00 67 1013.5
20200327211757 62 66 0.0 0.0 0.00 0.00 0.00 67 1013.3
20200327210757 62 67 0.0 0.0 0.00 0.00 0.00 65 1013.1
20200327204757 63 67 0.0 0.0 0.00 0.00 0.00 64 1012.8
20200327203757 63 67 0.0 0.0 0.00 0.00 0.00 63 1012.8
20200327200756 63 67 0.0 0.0 0.00 0.00 0.00 62 1012.9
20200327194756 64 62 0.0 0.0 0.00 0.00 0.00 62 1012.3
20200327184755 63 49 0.0 1.0 0.00 0.00 0.00 63 1012.1
20200327183755 64 9 0.0 1.0 0.00 0.00 0.00 63 1012.1
20200327182755 64 57 0.0 0.0 0.00 0.00 0.00 65 1012.2
20200327181755 64 360 3.0 3.0 0.00 0.00 0.00 63 1012.0
20200327180755 64 101 2.0 2.0 0.00 0.00 0.00 62 1012.1
20200327175755 64 65 1.0 2.0 0.00 0.00 0.00 65 1012.4
20200327165754 68 89 1.0 2.0 0.00 0.00 0.00 64 1012.1
20200327164754 68 103 1.0 2.0 0.00 0.00 0.00 63 1012.0
20200327155753 65 344 3.0 4.0 0.00 0.00 0.00 67 1011.9
20200327152753 65 86 2.0 4.0 0.00 0.00 0.00 69 1011.1
20200327151752 65 14 1.0 2.0 0.00 0.00 0.00 70 1011.0
20200327145752 63 49 0.0 0.0 0.00 0.00 0.00 70 1011.2
20200327142752 62 41 0.0 1.0 0.00 0.00 0.00 75 1011.2
20200327141752 61 360 0.0 0.0 0.00 0.00 0.00 76 1011.0
20200327135753 61 293 3.0 3.0 0.00 0.00 0.00 76 1011.1
20200327133755 59 316 3.0 3.0 0.00 0.00 0.00 80 1011.3
20200327132751 58 338 4.0 5.0 0.00 0.00 0.00 80 1011.2
20200327131751 58 294 3.0 3.0 0.00 0.00 0.00 81 1011.1
20200327130751 57 333 3.0 3.0 0.00 0.00 0.00 83 1011.0
20200327124751 56 297 5.0 5.0 0.00 0.00 0.00 86 1011.2